#timestamp,LO_Frequency,Hit,StdDev 
1633701615.8,286047002.0,Y
1633701635.6,286047000.4,P
1633701655.4,286047002.5,P
1633701675.3,286047002.6,N
1633701695.1,286047002.2,N
1633701696.0,286047002.2,N
1633701715.8,286047001.3,N
1633701735.7,286047004.1,Y
1633701755.5,286047002.1,P
1633701775.3,286047002.5,P
1633701795.2,286047002.2,P
1633701815.0,286047002.5,Y
1633701815.9,286047002.5,P
1633701835.7,286046998.5,P
1633701855.6,286046998.1,N
1633701875.4,286046999.9,N
1633701895.2,286047002.8,N
1633701915.1,286047002.0,N
1633701916.0,286047002.0,N
1633701935.8,286047002.7,N
1633701955.6,286047002.5,N
1633701975.5,286047004.4,N
1633701995.3,286047003.2,N
1633702015.1,286047003.6,N
1633702035.9,286047004.2,N
1633702055.7,286047003.8,N
1633702075.5,286047003.4,N
1633702095.4,286047003.1,N
1633702115.2,286047004.1,N
1633702135.0,286047003.0,N
1633702135.9,286047003.0,N
1633702155.8,286047004.1,N
1633702175.6,286047003.1,N
1633702195.4,286047005.4,Y
1633702215.3,286047001.7,P
1633702235.1,286047004.2,P
1633702255.8,286047004.3,P
1633702275.7,286047003.8,Y
1633702295.5,286047000.6,P
1633702315.3,286047000.2,N
1633702335.2,286046998.1,N
1633702355.0,286047001.2,N
1633702355.9,286047001.2,N
1633702375.8,286047000.5,N
1633702395.6,286047001.0,N
1633702415.4,286046999.7,N
1633702435.2,286047002.5,N
1633702455.1,286047002.6,N
1633702456.0,286047002.6,N
1633702475.8,286047002.8,N
1633702495.7,286047000.6,N
1633702515.5,286047001.0,N
1633702535.3,286047000.5,N
1633702555.1,286047000.3,N
1633702575.9,286047000.7,N
1633702595.7,286047000.9,N
1633702615.5,286047000.7,N
1633702635.4,286047000.4,N
1633702655.2,286047000.4,N
1633702675.0,286047002.8,N
1633702676.0,286047002.8,N
1633702695.8,286046999.8,N
1633702715.6,286047002.8,N
1633702735.4,286047001.5,N
1633702755.3,286047001.5,N
1633702775.1,286047002.0,N
1633702795.8,286047002.8,N
1633702815.7,286047002.5,N
1633702835.5,286047001.9,N
1633702855.3,286047001.4,N
1633702875.2,286047001.3,N
1633702895.0,286047001.4,N
1633702895.9,286047001.4,N
1633702915.8,286047004.0,Y
1633702935.6,286047001.0,P
1633702955.4,286047000.6,N
1633702975.3,286046998.2,P
1633702995.1,286047000.4,N
1633702996.0,286047000.4,N
1633703015.8,286047000.9,N
1633703035.7,286046998.2,N
1633703055.5,286046996.9,N
1633703075.3,286046996.6,N
1633703095.2,286046996.7,N
1633703115.9,286046997.7,N
1633703135.7,286046997.5,N
1633703155.5,286046997.9,N
1633703175.4,286046997.4,N
1633703195.2,286046998.0,N
1633703215.0,286046997.2,N
1633703215.9,286046997.2,N
1633703235.8,286046997.7,N
1633703255.6,286046997.7,N
1633703275.4,286046997.9,N
1633703295.3,286046996.3,N
1633703315.1,286046993.3,Y
1633703335.9,286046998.0,P
1633703355.7,286046995.0,P
1633703375.5,286046995.3,P
1633703395.3,286046995.5,N
1633703415.2,286046996.2,N
1633703435.0,286046996.4,N
1633703435.9,286046996.4,N
1633703455.8,286046993.3,Y
1633703475.6,286046997.1,P
1633703495.4,286046996.8,P
1633703515.2,286046996.7,P
1633703535.1,286046997.4,Y
1633703536.0,286046997.4,P
1633703555.8,286047000.8,N
1633703575.7,286046998.9,N
1633703595.5,286046998.5,N
1633703615.3,286046998.7,N
1633703635.2,286046998.7,N
1633703655.9,286046999.4,N
1633703675.7,286046999.6,N
1633703695.6,286046997.4,N
1633703715.4,286046995.0,Y
1633703735.2,286046997.0,P
1633703755.1,286046996.9,P
1633703756.0,286046996.9,P
1633703775.8,286046997.0,Y
1633703795.6,286046998.6,P
1633703815.5,286046999.3,N
1633703835.3,286046999.2,N
1633703855.1,286046999.2,N
1633703875.9,286046998.7,N
1633703895.7,286046998.3,N
1633703915.5,286046997.0,Y
1633703935.4,286046999.5,P
1633703955.2,286046998.8,N
1633703975.0,286046999.1,N
1633703975.9,286046999.1,N
1633703995.8,286046999.4,N
1633704015.6,286046996.6,Y
1633704035.4,286046999.5,P
1633704055.3,286046999.6,N
1633704075.1,286046999.3,P
1633704076.0,286046999.3,Y
1633704095.8,286046996.9,P
1633704115.7,286046997.4,N
1633704135.5,286046996.7,P
1633704155.3,286046997.2,N
1633704175.2,286046997.7,N
1633704195.9,286046997.9,N
1633704215.7,286046996.7,Y
1633704235.6,286046998.6,P
1633704255.4,286046998.2,P
1633704275.2,286047000.8,N
1633704295.1,286046998.2,N
1633704296.0,286046998.2,N
1633704315.8,286047000.7,N
1633704335.6,286046996.5,N
1633704355.5,286046996.5,N
1633704375.3,286046996.5,N
1633704395.1,286046999.3,N
1633704415.9,286046996.9,N
1633704435.7,286046997.1,N
1633704455.5,286046996.2,N
1633704475.4,286046995.9,N
1633704495.2,286046993.8,Y
1633704515.0,286046995.4,P
1633704515.9,286046995.4,P
1633704535.8,286046995.9,P
1633704555.6,286046995.1,Y
1633704575.4,286047001.2,P
1633704595.3,286046998.3,N
1633704615.1,286046998.8,N
1633704635.8,286046998.3,N
1633704655.7,286046999.6,N
1633704675.5,286046999.5,N
1633704695.3,286046999.4,N
1633704715.2,286046994.9,Y
1633704735.0,286046997.1,P
1633704735.9,286046997.1,P
1633704755.7,286046996.8,P
1633704775.6,286046996.6,Y
1633704795.4,286047000.6,P
1633704815.2,286046998.1,N
1633704835.1,286047001.2,N
1633704836.0,286047001.2,N
1633704855.8,286047000.8,N
1633704875.6,286047000.7,N
1633704895.5,286046998.2,N
1633704915.3,286046998.1,N
1633704935.1,286046998.4,N
1633704955.9,286046999.4,N
1633704975.7,286046999.4,N
1633704995.5,286046998.2,N
1633705015.4,286046998.7,N
1633705035.2,286046999.5,N
1633705055.0,286046996.5,N
1633705055.9,286046996.5,N
1633705075.8,286046997.1,N
1633705095.6,286046996.8,N
1633705115.4,286046996.9,N
1633705135.3,286046997.8,N
1633705155.1,286046998.0,N
1633705156.0,286046998.0,N
1633705175.8,286046995.1,Y
1633705195.7,286046997.3,P
